TIME,DELAY(SENSOR),PRES,T(CTD),SAL,OXYGEN,RAWTEMP,T(OPTODE),TCPHASE,FLUOR,BETA(BETA700),BETA(BETA412),BETA(BETA440),CDOM,C(CSC),ED(ED412.40),ED(ED444.00),ED(ED489.70),ED(ED554.30),LU(LU411.80),LU(LU443.40),LU(LU489.60),LU(LU554.10),COMP,TILTX,TILTX(TILTY),CHECK
1360705222,5809,498.0000000000000000,6.4007000923156740,34.1296997070312500,73.7777786254882800,606.3447265625000000,6.3791179656982420,49.7422218322753900,52,103,89,81,79,14937,2147747748,2147425490,2148006948,2147872329,2147631332,2147075666,2148242422,2147200018,981,4,13,57824
1360705376,5807,486.9100036621094000,6.5808000564575195,34.1157989501953100,80.1475601196289000,600.8485717773438000,6.5568518638610840,48.9034309387207000,53,103,88,80,80,14937,2147744182,2147421120,2148005842,2147869997,2147629129,2147080502,2148241837,2147200777,696,4,13,3904
1360705524,5809,475.3699951171875000,6.7421998977661130,34.1059989929199200,87.5278015136718800,595.3936157226562000,6.7329688072204590,47.9765510559082000,51,102,89,80,78,14938,2147746688,2147421540,2148005001,2147873481,2147630811,2147081490,2148242907,2147200576,581,4,13,59911
1360705645,5810,464.6499938964844000,6.9962000846862790,34.1001014709472660,96.4166564941406200,587.9005737304688000,6.9744319915771480,46.8878517150878900,52,105,89,79,78,14938,2147743670,2147422582,2148004333,2147872722,2147627254,2147077549,2148236379,2147202514,3342,4,13,53618
1360705769,5809,453.7099914550781000,7.2202000617980960,34.0996017456054700,102.8018035888671900,580.8145141601562000,7.2023029327392580,46.1001701354980500,52,103,91,80,77,14937,2147745408,2147423076,2148003739,2147872621,2147628022,2147080073,2148237915,2147200795,2798,4,13,44126
1360705901,5808,441.8500061035156000,7.4654998779296875,34.0900001525878900,112.3612976074218800,573.2321166992188000,7.4456329345703125,45.0088996887207000,50,103,88,81,76,14938,2147743533,2147423552,2148008768,2147873106,2147624841,2147079661,2148239844,2147200420,2342,3,13,17243
1360706022,5807,430.8999938964844000,7.9425997734069820,34.1058998107910160,120.1237030029296900,558.4282226562500000,7.9192562103271480,44.0123710632324200,50,104,87,80,77,14936,2147745270,2147424384,2148006262,2147875538,2147626285,2147078628,2148237330,2147198171,1571,4,13,56574
1360706145,5809,419.8099975585937500,8.2171001434326170,34.1072006225585940,128.1739044189453000,549.4490966796875000,8.2056179046630860,43.1100006103515600,51,106,87,80,75,14933,2147743378,2147421339,2148006436,2147872685,2147623323,2147086921,2148235894,2147201380,927,4,13,65385
1360706266,5808,409.0700073242187500,8.5177001953125000,34.1032981872558600,138.9512023925781200,540.0087280273438000,8.5059719085693360,41.9925193786621100,50,104,86,80,75,14932,2147743131,2147420918,2147999826,2147873618,2147621101,2147087798,2148237330,2147202587,398,3,13,48647
1360706390,5811,398.2000122070312500,8.7924003601074220,34.0988006591796900,148.6520996093750000,531.7938232421875000,8.7667617797851560,41.0357093811035160,50,104,88,80,75,14933,2147739556,2147424475,2148002185,2147869979,2147620489,2147091584,2148230253,2147196982,2850,4,13,6451
1360706511,5808,387.2399902343750000,8.9498996734619140,34.0959014892578100,156.8229064941406200,526.4008178710938000,8.9376773834228520,40.2877883911132800,50,104,88,79,74,14933,2147740132,2147421924,2148004050,2147873033,2147615222,2147086244,2148225435,2147199808,3247,4,13,40724
1360706632,5808,376.0799865722656000,9.2267999649047850,34.0960998535156250,165.3388977050781200,517.9000244140625000,9.2066392898559570,39.4889488220214840,50,105,89,80,73,14933,2147739620,2147423360,2148000731,2147872822,2147615926,2147089106,2148227126,2147200082,103,4,13,59212
1360706755,5808,364.9700012207031000,9.5450000762939450,34.1027984619140600,174.1293945312500000,507.6372985839844000,9.5306339263916020,38.6711692810058600,50,106,84,80,72,14929,2147739227,2147425645,2148001764,2147873728,2147615725,2147093366,2148224932,2147196370,2383,3,13,794
1360706887,5810,354.2399902343750000,9.9035997390747070,34.1080017089843750,181.1318054199218800,496.5679016113281000,9.8792524337768550,37.9933204650878900,49,105,88,79,72,14931,2147738276,2147423835,2148002157,2147872841,2147614198,2147093467,2148226340,2147201892,1149,4,13,39445
1360707033,5805,344.1799926757812500,10.1555004119873050,34.1204986572265600,188.8545989990234400,488.0856018066406000,10.1458196640014650,37.3317108154296900,50,107,88,80,71,14929,2147732982,2147424128,2148006390,2147869760,2147612809,2147097673,2148222710,2147202724,1199,4,13,41047
1360707220,5804,333.3500061035156000,10.6975002288818360,34.1264991760253900,195.8280944824218800,471.0343933105469000,10.6802501678466800,36.5987014770507800,49,105,90,81,71,14931,2147735040,2147421357,2148001252,2147873344,2147610486,2147099840,2148222016,2147208219,2099,4,13,3251
1360707388,5808,321.7300109863281000,10.9217996597290040,34.1273002624511700,202.0724029541015600,461.3664855957031000,10.9824495315551760,36.0516395568847660,49,103,88,80,70,14933,2147730916,2147426258,2148005339,2147872621,2147606509,2147104420,2148221723,2147206985,3472,3,14,3177
1360707520,5809,310.1700134277344000,11.5068998336792000,34.1299018859863300,204.6385040283203000,443.8854064941406000,11.5274896621704100,35.6125297546386700,48,103,87,79,69,14930,2147731638,2147426514,2148010057,2147871780,2147605705,2147113563,2148219730,2147203273,2519,3,13,20459
1360707644,5811,299.5499877929687500,12.0958995819091800,34.1731986999511700,207.2572021484375000,426.5192871093750000,12.0672702789306640,35.1781387329101560,49,105,88,80,68,14930,2147728640,2147426029,2148010084,2147870089,2147599817,2147114651,2148218660,2147204214,1484,4,13,44459
1360707776,5805,288.7300109863281000,12.5904998779296880,34.1987991333007800,209.8796997070312500,409.8004150390625000,12.5854902267456050,34.7608604431152340,49,102,88,80,69,14930,2147728393,2147427072,2148019136,2147871341,2147599734,2147122258,2148221019,2147206555,2340,3,14,9181
1360707922,5808,277.4400024414062500,13.0747995376586910,34.2336997985839840,211.2525024414062500,393.4006042480469000,13.0925598144531250,34.4267692565918000,48,104,87,81,68,14931,2147729152,2147443428,2148055460,2147872640,2147598317,2147135122,2148232877,2147210678,1410,3,13,44482
1360708076,5808,266.9899902343750000,13.8481998443603520,34.3041000366210940,212.5794982910156200,369.4444885253906000,13.8312501907348630,33.9840507507324200,48,102,87,79,66,14928,2147726619,2147445467,2148051474,2147869878,2147593453,2147132077,2148224941,2147212800,721,3,14,6721
1360708266,5807,253.9199981689453000,14.3802003860473630,34.3529014587402340,214.1076965332031200,351.8642883300781000,14.3720102310180660,33.6326103210449200,48,102,87,80,67,14928,2147722587,2147452461,2148056374,2147870902,2147589531,2147144740,2148227529,2147212800,575,3,14,40698
1360708387,5809,243.3200073242187500,15.5644998550415040,34.4655990600585940,211.9447021484375000,313.8876037597656000,15.5370197296142580,33.1915283203125000,49,103,87,80,67,14927,2147725202,2147468077,2148093321,2147872054,2147589394,2147161947,2148234669,2147209115,65,3,14,6594
1360708522,5808,231.9900054931640600,15.8769998550415040,34.5163993835449200,214.3966979980468800,303.0295104980469000,15.8694696426391600,32.8973884582519500,47,102,89,78,66,14926,2147729024,2147504685,2148158729,2147871936,2147584320,2147189558,2148267584,2147215990,3022,3,15,40218
1360708643,5808,221.3099975585937500,16.2430000305175780,34.5573005676269500,215.0218963623047000,290.9002075195312500,16.2405891418457030,32.6881790161132800,48,101,87,79,65,14925,2147739593,2147570386,2148284224,2147872256,2147588251,2147232192,2148330934,2147217947,2451,3,15,22387
1360708764,5806,210.8899993896484400,16.8367996215820300,34.6302986145019500,214.8688049316406200,271.1776123046875000,16.8435497283935550,32.4148216247558600,48,100,86,79,65,14922,2147760484,2147638848,2148402368,2147873874,2147596388,2147274221,2148379931,2147230619,1274,3,14,25309
1360708909,5808,199.9700012207031200,17.4839000701904300,34.7174987792968750,214.6103973388672000,250.4017944335937500,17.4782695770263670,32.1356201171875000,48,101,86,81,66,14919,2147796809,2147743341,2148577654,2147876370,2147606637,2147345170,2148477412,2147234669,3202,3,15,16841
1360708964,5806,196.1900024414062500,17.8852005004882800,34.7709999084472660,213.5693054199218800,233.8533935546875000,17.9836597442626950,31.9609699249267580,49,100,87,81,65,14918,2147809124,2147787245,2148646372,2147878802,2147616557,2147369600,2148506724,2147236397,3065,3,15,14854
1360709030,5807,192.2500000000000000,18.4610996246337900,34.8466987609863300,214.5498046875000000,223.4611053466797000,18.3010196685791000,31.7642402648925780,50,104,88,80,65,14913,2147825773,2147813942,2148685750,2147874093,2147616164,2147388461,2148518528,2147235364,3282,3,15,25457
1360709096,5807,188.6900024414062500,19.0804004669189450,34.9552001953125000,216.6322937011718800,200.6891937255859400,18.9965305328369140,31.3405303955078120,50,105,85,78,65,14912,2147828580,2147803008,2148654793,2147873152,2147620480,2147392457,2148513197,2147235446,347,3,15,32726
1360709182,5811,184.7100067138672000,19.3918991088867200,35.0055999755859400,220.1298980712890600,188.5251007080078000,19.3681907653808600,30.9924907684326170,52,106,86,79,65,14913,2147874962,2147929051,2148863268,2147875858,2147636032,2147473462,2148609526,2147247158,1162,2,15,50723
1360709281,5810,180.8300018310547000,19.7945003509521500,35.0578994750976560,220.9913024902343800,177.2120056152343800,19.7139797210693360,30.7959594726562500,54,106,88,81,64,14905,2147900964,2147979099,2148936877,2147876242,2147652306,2147505938,2148650752,2147247250,1280,2,15,53462
1360709380,5808,176.9900054931640600,19.9281005859375000,35.0788002014160160,221.9434967041015600,171.5041961669922000,19.8885097503662100,30.6709709167480470,55,107,89,82,62,14903,2147937517,2148051977,2149053037,2147873033,2147661668,2147562084,2148707099,2147253293,978,3,15,59789
1360709460,5807,173.5599975585937500,19.9976997375488280,35.0875015258789060,223.3376007080078000,168.7807006835937500,19.9717998504638670,30.5636501312255860,57,111,89,81,63,14898,2147978916,2148135734,2149177097,2147877458,2147684580,2147624512,2148770185,2147261412,1072,2,15,38670
1360709548,5809,169.8099975585937500,20.1144008636474600,35.1007995605468750,223.4329986572265600,165.5014038085937500,20.0721092224121100,30.5154304504394530,59,108,86,81,63,14900,2148037376,2148241819,2149340013,2147874797,2147710985,2147690121,2148851053,2147264694,1048,2,15,25307
1360709647,5805,166.2299957275390600,20.3890991210937500,35.1332015991210940,222.9479980468750000,155.9477996826172000,20.3644294738769530,30.4130897521972660,66,109,88,81,63,14891,2148103414,2148367762,2149526208,2147880164,2147738148,2147763867,2148941220,2147270253,792,2,15,40648
1360709799,5812,161.9499969482422000,20.4839992523193360,35.1460990905761700,223.5059967041015600,152.2395019531250000,20.4779491424560550,30.3359909057617200,68,111,86,82,63,14884,2148205842,2148545005,2149768512,2147881097,2147785792,2147873654,2149065609,2147281764,28,2,15,54881
1360709898,5808,157.9199981689453000,20.6858005523681640,35.1678009033203100,223.5101013183593800,145.8007965087890600,20.6751098632812500,30.2509002685546880,76,114,87,83,62,14879,2148330459,2148744237,2150043940,2147883291,2147839259,2147984082,2149195986,2147292754,2813,2,16,30616
1360710008,5809,153.5800018310547000,20.7978992462158200,35.1782989501953100,223.8946075439453000,142.1840972900390600,20.7859001159667970,30.1840991973876950,78,115,91,83,63,14872,2148498340,2148994761,2150389760,2147886509,2147915638,2148135981,2149356992,2147305142,2209,2,16,279
1360710098,5812,149.5200042724609400,21.0879993438720700,35.2011985778808600,223.3325042724609400,132.3562011718750000,21.0870895385742200,30.0835399627685550,85,116,88,81,62,14867,2148712630,2149295926,2150792137,2147888054,2148007725,2148300434,2149544457,2147316205,2904,2,16,2243
1360710186,5809,145.8600006103515600,21.2080001831054700,35.2182998657226560,224.6101074218750000,128.9400024414062500,21.1918392181396500,29.9751300811767580,92,120,90,83,63,14850,2148994267,2149683995,2151314724,2147891126,2148118473,2148482834,2149742811,2147337069,3538,2,16,39431
1360710296,5810,141.9400024414062500,21.3733997344970700,35.2318992614746100,225.1063995361328000,123.8807983398437500,21.3470306396484380,29.8846092224121100,98,121,89,81,61,14846,2149387410,2150179812,2151901851,2147899474,2148282642,2148712923,2149980644,2147360091,406,2,15,63245
1360710419,5808,137.7799987792968800,21.5573005676269530,35.2467994689941400,226.0885009765625000,117.2517013549804700,21.5504798889160160,29.7497596740722660,106,124,90,84,62,14827,2150140132,2151096164,2152981348,2147906532,2148578432,2149099785,2150359725,2147391862,1352,2,15,59877
1360710518,5809,134.1900024414062500,22.1254997253417970,35.2737007141113300,227.5959930419922000,99.0212478637695300,22.1106605529785160,29.4409599304199220,135,130,91,83,62,14801,2150972068,2152065865,2154055451,2147917421,2148890422,2149480877,2150740205,2147429686,1309,2,15,28186
1360710639,5807,130.0500030517578000,22.3719997406005860,35.2830009460449200,230.4436950683593800,90.9307708740234400,22.3596096038818360,29.2002201080322270,148,129,91,83,61,14786,2152142372,2153413165,2155513682,2147930788,2149331501,2149997668,2151262253,2147479707,2724,1,16,51487
1360710740,5808,124.9300003051757800,22.7143993377685550,35.3025016784668000,231.1725006103515600,80.1413421630859400,22.6919708251953120,29.0280990600585940,139,135,96,85,59,14762,2153953024,2155585024,2157802660,2147955858,2150093467,2150913261,2152152905,2147562221,1871,2,15,41990
1360710806,5809,120.9199981689453100,22.7299995422363280,35.3035011291503900,232.3533020019531200,78.0966873168945300,22.7549991607666000,28.9463500976562500,151,134,92,86,60,14761,2155849334,2157838198,2160194276,2147983387,2150890349,2151856411,2153048155,2147646829,915,1,16,43414
1360710872,5811,116.8600006103515600,22.9687995910644530,35.3194999694824200,232.9934997558593800,71.2994995117187500,22.9646701812744140,28.8304405212402340,149,127,92,83,59,14757,2157916425,2160197805,2162604498,2148016182,2151790820,2152886930,2153999488,2147743744,411,2,15,24407
1360710938,5812,113.1900024414062500,23.1184997558593750,35.3168983459472660,234.7682037353515600,66.8032379150390600,23.1034603118896500,28.6907691955566400,121,121,91,85,59,14793,2160060425,2162539392,2164863488,2148054738,2152825362,2154058486,2155057206,2147845952,3556,1,16,13776
1360711018,5807,109.5800018310546900,23.3097991943359380,35.3297996520996100,236.4589996337890600,60.5234489440918000,23.2974605560302730,28.5338306427001950,87,122,93,83,58,14811,2162045440,2164698048,2166842230,2148093092,2153973558,2155316278,2156101394,2147944237,2622,2,16,34597
1360711117,5807,106.0599975585937500,23.4876003265380860,35.3604011535644500,237.8757019042968800,54.5616111755371100,23.4817790985107420,28.3944606781005860,88,122,91,85,59,14812,2164898733,2167940434,2169865846,2148157147,2156049115,2157627501,2157941860,2148113435,1536,1,16,61904
1360711249,5807,101.8199996948242200,23.6182994842529300,35.3844985961914060,238.9949035644531200,50.6050796508789060,23.6042003631591800,28.2941799163818360,85,124,90,84,57,14807,2168516891,2171555264,2173113152,2148236992,2158863149,2160596251,2160223030,2148310171,199,2,16,3699
1360711328,5808,98.2500000000000000,23.6347999572753900,35.3888015747070300,240.0975036621093800,49.8000106811523440,23.6291198730468750,28.2346305847167970,80,126,91,84,57,14806,2172837750,2176455652,2177806756,2148363611,2162274258,2164200493,2162972982,2148545188,602,2,15,55356
1360711383,5809,94.8300018310546900,23.6513004302978500,35.3870010375976560,240.5370941162109400,49.4207801818847660,23.6408596038818360,28.2100791931152340,82,125,91,85,59,14805,2176532507,2180306038,2181231213,2148496109,2165246299,2167289069,2165262720,2148759689,538,1,16,12967
1360711438,5811,91.2600021362304700,23.6515007019042970,35.3530998229980500,241.2646026611328000,49.4047508239746100,23.6413497924804700,28.1773109436035160,76,124,92,82,57,14803,2180945636,2184965723,2185606070,2148662957,2168873353,2171082130,2168178121,2149020736,47,1,16,23098
1360711493,5805,87.7500000000000000,23.6373996734619140,35.3303985595703100,241.7019042968750000,49.5824699401855500,23.6358509063720700,28.1600494384765620,75,123,91,85,55,14795,2185305161,2189352996,2189447332,2148867282,2172474870,2174627931,2170636836,2149265408,3487,1,16,3183
1360711548,5806,84.2399978637695300,23.6767005920410160,35.3335990905761700,241.7787017822265600,48.3474197387695300,23.6740894317626950,28.1412296295166000,73,122,91,82,57,14789,2190523072,2195038080,2194827803,2149159460,2176986477,2179308937,2174089161,2149590802,2850,1,16,42464
1360711603,5812,80.9199981689453100,23.7852001190185550,35.3448982238769500,241.6253967285156200,44.9496002197265600,23.7793102264404300,28.1057491302490230,75,123,89,85,58,14792,2195434057,2200417490,2199650176,2149451702,2181924534,2184025974,2177320740,2149911085,2410,2,16,26110
1360711678,5808,77.0699996948242200,23.8288002014160160,35.3527984619140600,242.0075073242187500,43.5367393493652340,23.8230800628662100,28.0712394714355470,74,119,90,83,55,14797,2201828626,2207390592,2206085942,2149918253,2188448795,2190478948,2181663396,2150357814,1586,1,16,63439
1360711733,5811,74.9599990844726600,23.8316993713378900,35.3536987304687500,242.1564941406250000,43.3218498229980500,23.8297290802001950,28.0618095397949220,73,120,89,83,57,14793,2205634642,2211101696,2209516498,2150201636,2192584073,2194530029,2184460443,2150623625,1176,1,16,17100
1360711788,5807,73.0699996948242200,23.8423995971679700,35.3549003601074200,242.2039947509765600,42.9430198669433600,23.8414707183837900,28.0552501678466800,71,120,90,84,57,14797,2210470838,2216388544,2214994386,2150544969,2197155931,2199321536,2187913718,2150960182,834,1,16,40905
1360711854,5807,71.0199966430664000,23.8486995697021500,35.3554992675781250,242.4718017578125000,42.6528892517089840,23.8504600524902340,28.0396900177001950,69,120,90,83,60,14786,2215639378,2221746496,2220527478,2151090688,2202147538,2204105408,2191184603,2151307638,328,2,16,21435
1360711920,5810,69.1699981689453100,23.8549003601074220,35.3557014465332000,242.5213012695312500,42.3977699279785160,23.8583698272705080,28.0343894958496100,66,118,90,84,58,14792,2216708480,2222245284,2220549842,2151233069,2206208310,2207916598,2193612123,2151536512,37,2,16,51807
1360711995,5804,66.8199996948242200,23.8675994873046880,35.3548011779785160,242.7221069335937500,42.0785408020019500,23.8682594299316400,28.0215492248535160,63,117,88,83,57,14786,2224453924,2230351561,2228414125,2152097846,2214826358,2216261412,2199141723,2152111378,3563,1,16,38245
1360712050,5810,64.6600036621093800,23.8747997283935550,35.3554992675781250,242.8191986083984400,41.8247985839843750,23.8761196136474600,28.0139408111572270,62,121,91,83,58,14783,2231094464,2237570249,2235875355,2153055451,2223671954,2225317860,2205610148,2152806253,3275,1,16,65424
1360712105,5806,62.5099983215332000,23.8799991607666000,35.3553009033203100,242.9944000244140600,41.5827713012695300,23.8836307525634770,28.0032596588134770,62,118,91,83,56,14784,2239855698,2247511396,2246005430,2154075346,2230990006,2232195364,2210001691,2153320950,2996,1,16,64535
1360712160,5808,60.3199996948242200,23.8938999176025400,35.3563003540039060,242.9333953857422000,41.2748413085937500,23.8931694030761720,28.0020809173584000,62,120,92,85,57,14780,2190685952,2189942473,2185751378,2150229595,2189758070,2186600054,2174303780,2149795026,3157,1,16,48433
1360712215,5806,58.0800018310546900,23.9158992767334000,35.3574981689453100,242.9344024658203000,40.4689788818359400,23.9181499481201170,27.9919395446777340,61,116,93,84,57,14778,2248875867,2256025636,2254003035,2155886354,2244868388,2245125266,2218204928,2154359049,3257,1,16,8646
1360712270,5806,55.8300018310546900,23.9223995208740230,35.3586006164550800,242.9028015136718800,40.2105216979980500,23.9261608123779300,27.9903202056884770,60,118,92,84,56,14784,2251103341,2257392109,2254435172,2156665673,2251583533,2251148580,2221799442,2154766875,3023,1,16,42182
1360712348,5816,52.1399993896484400,23.9659996032714840,35.3585014343261700,242.3137969970703000,36.2679595947265600,24.0484104156494140,27.9676494598388670,60,122,89,84,55,14772,2268653732,2276491136,2273687698,2160170176,2267906578,2266133705,2231607579,2156080036,2726,0,16,2441
1360712403,5809,49.4300003051757800,24.3617000579834000,35.3396987915039060,240.7835998535156200,26.8331794738769530,24.3412799835205080,27.9188804626464840,58,119,90,83,59,14777,2278393472,2287363373,2284926089,2163067638,2281774674,2279307062,2240455689,2157455058,2538,1,16,30078
1360712458,5807,47.3600006103515600,24.3724002838134770,35.3418006896972660,240.2409057617187500,25.8722190856933600,24.3711395263671880,27.9312496185302730,56,117,89,84,55,14786,2231656420,2232721837,2227029979,2156755053,2242704347,2236726573,2207775963,2153668306,2369,1,17,30687
1360712513,5810,45.1199989318847660,24.3726997375488280,35.3429985046386700,239.9848937988281200,25.8457698822021500,24.3719596862792970,27.9423294067382800,57,116,91,84,59,14786,2265749540,2271542930,2267817600,2163814948,2275512310,2269165851,2230274486,2156942939,2274,2,17,34280
1360712568,5811,42.6199989318847660,24.3745002746582030,35.3432006835937500,240.0289001464843800,25.6246795654296880,24.3788299560546880,27.9376506805419920,55,115,92,83,57,14786,2299197330,2308758400,2306557266,2171736100,2321563712,2315873545,2264008658,2161253814,2318,1,17,39185
1360712623,5808,40.0099983215332000,24.3822002410888670,35.3428001403808600,239.9651031494140600,25.2872505187988280,24.3893108367919920,27.9363193511962900,55,116,92,84,59,14790,2316740909,2327913746,2327077330,2177975881,2340959972,2333513216,2275528292,2163339657,2422,2,16,50775
1360712680,5809,37.2999992370605500,24.3845996856689450,35.3428993225097660,240.0012969970703000,25.3721199035644530,24.3866806030273440,27.9356002807617200,53,116,89,84,58,14796,2215177627,2211901421,2205295606,2157201435,2230143186,2218940864,2192209252,2152637604,2432,2,16,30591
1360712735,5807,34.6599998474121100,24.3866004943847660,35.3432998657226560,240.0135955810547000,25.0589809417724600,24.3964099884033200,27.9313602447509770,54,116,89,83,57,14793,2332354441,2342135003,2341810724,2189779446,2372106477,2361410715,2293496950,2167106870,2516,2,16,25734
1360712790,5812,32.0800018310546900,24.3878002166748050,35.3431015014648440,240.2348022460937500,24.9130401611328120,24.4009399414062500,27.9195804595947270,53,116,91,83,56,14792,2354331291,2366847414,2369169179,2199556141,2394727844,2382636662,2307676973,2170081773,2644,1,16,35709
1360712845,5810,29.5100002288818360,24.3885002136230470,35.3429985046386700,240.4255065917968800,24.8556003570556640,24.4027309417724600,27.9103698730468750,53,116,92,83,57,14794,2366685357,2380300032,2384435300,2209673334,2418840987,2404642486,2322907136,2173499794,2627,1,17,12503
1360712900,5804,26.9400005340576170,24.3887004852294920,35.3432998657226560,240.4712066650390600,24.8031806945800780,24.4043598175048830,27.9076995849609380,52,116,90,84,51,14794,2378618029,2391053988,2396138724,2224366244,2445843977,2431063625,2339911286,2177935259,2693,1,17,21448
1360712955,5807,24.3600006103515620,24.3911991119384770,35.3427009582519500,240.3031005859375000,24.9722404479980470,24.3990993499755860,27.9173793792724600,52,116,89,83,55,14795,2362489069,2370979602,2373982473,2222464850,2399967314,2379984091,2302831643,2173406848,2884,1,16,41446
